User: anonymous   Login
Location: Unspecified
(0.0000°N, 0.0000°E)
Time: 00:39:04
(UTC+00:00)
Language:

OBJECT H - Orbit

View from above orbital plane
View from above orbital plane
View from above satellite
View from above satellite

Ground track
Ground track

The orbit data is extracted from the following two-line orbital elements,

1 41939U 98067KZ  17206.39583886 +.00027633 +00000-0 +27475-3 0  9991
2 41939 051.6360 199.2722 0007541 053.9223 306.2469 15.65482632028914
Epoch (UTC): 25 July 2017 09:30:00
Eccentricity: 0.0007541
inclination: 51.6360°
perigee height: 367 km
apogee height: 377 km
right ascension of ascending node: 199.2722°
argument of perigee: 53.9223°
revolutions per day: 15.65482632
mean anomaly at epoch: 306.2469°
orbit number at epoch: 2891

The dashed part of the orbit path shows where the satellite is in the earth's shadow,  

DLR